• In Hungary
  • List of Countries
  • For 7 days
  • Water Temperature
  • Satellite Maps
  • Weather Map
  • News
  • Weather Widgets
  • user-avatar
    Login

    Hourly Weather Manika

    Today, 18 September, Tuesday

    Time Temperature Precipitation Wind Pressure Humidity
    00:00 +23°C° 0 mm 1 mps 679 mmHg 30%
    01:00 +22°C° 0 mm 1 mps 679 mmHg 31%
    02:00 +21°C° 0 mm 1 mps 678 mmHg 35%
    03:00 +21°C° 0 mm 1 mps 678 mmHg 36%
    04:00 +20°C° 0 mm 1 mps 678 mmHg 37%
    05:00 +20°C° 0 mm 1 mps 678 mmHg 38%
    06:00 +23°C° 0 mm 1 mps 679 mmHg 33%
    07:00 +25°C° 0 mm 1 mps 680 mmHg 28%
    08:00 +29°C° 0 mm 1 mps 681 mmHg 22%
    09:00 +31°C° 0 mm 1 mps 681 mmHg 17%
    10:00 +35°C° 0 mm 2 mps 681 mmHg 13%
    11:00 +37°C° 0 mm 2 mps 681 mmHg 9%
    12:00 +38°C° 0 mm 2 mps 681 mmHg 8%
    13:00 +38°C° 0 mm 3 mps 681 mmHg 7%
    14:00 +39°C° 0 mm 3 mps 680 mmHg 6%
    15:00 +38°C° 0 mm 3 mps 680 mmHg 8%
    16:00 +37°C° 0 mm 4 mps 680 mmHg 9%
    17:00 +35°C° 0 mm 4 mps 679 mmHg 11%
    18:00 +33°C° 0 mm 3 mps 679 mmHg 15%
    19:00 +29°C° 0 mm 3 mps 679 mmHg 18%
    20:00 +26°C° 0 mm 2 mps 679 mmHg 22%
    21:00 +25°C° 0 mm 2 mps 680 mmHg 24%
    22:00 +25°C° 0 mm 2 mps 680 mmHg 26%
    23:00 +24°C° 0 mm 2 mps 680 mmHg 28%

    Tomorrow, 19 September, Wednesday

    Time Temperature Precipitation Wind Pressure Humidity
    00:00 +23°C° 0 mm 1 mps 680 mmHg 30%
    01:00 +22°C° 0 mm 1 mps 679 mmHg 32%
    02:00 +22°C° 0 mm 1 mps 679 mmHg 34%
    03:00 +21°C° 0 mm 1 mps 679 mmHg 35%
    04:00 +21°C° 0 mm 1 mps 679 mmHg 37%
    05:00 +19°C° 0 mm 2 mps 679 mmHg 38%
    06:00 +23°C° 0 mm 2 mps 680 mmHg 33%
    07:00 +26°C° 0 mm 2 mps 681 mmHg 28%
    08:00 +28°C° 0 mm 2 mps 681 mmHg 23%
    09:00 +31°C° 0 mm 2 mps 682 mmHg 19%
    10:00 +35°C° 0 mm 2 mps 682 mmHg 15%
    11:00 +37°C° 0 mm 2 mps 682 mmHg 11%
    12:00 +38°C° 0 mm 3 mps 681 mmHg 10%
    13:00 +39°C° 0 mm 3 mps 681 mmHg 10%
    14:00 +39°C° 0 mm 3 mps 680 mmHg 9%
    15:00 +38°C° 0 mm 3 mps 680 mmHg 10%
    16:00 +37°C° 0 mm 3 mps 680 mmHg 11%
    17:00 +36°C° 0 mm 4 mps 679 mmHg 12%
    18:00 +33°C° 0 mm 3 mps 679 mmHg 16%
    19:00 +30°C° 0 mm 3 mps 680 mmHg 19%
    20:00 +27°C° 0 mm 2 mps 680 mmHg 23%
    21:00 +26°C° 0 mm 2 mps 680 mmHg 25%
    22:00 +25°C° 0 mm 2 mps 680 mmHg 26%
    23:00 +24°C° 0 mm 2 mps 681 mmHg 28%

    Day after tomorrow, 20 September, Thursday

    Time Temperature Precipitation Wind Pressure Humidity
    00:00 +24°C° 0 mm 1 mps 680 mmHg 29%
    01:00 +23°C° 0 mm 1 mps 680 mmHg 30%
    02:00 +22°C° 0 mm 1 mps 680 mmHg 30%
    03:00 +22°C° 0 mm 1 mps 679 mmHg 31%
    04:00 +21°C° 0 mm 1 mps 679 mmHg 31%
    05:00 +21°C° 0 mm 1 mps 679 mmHg 32%
    06:00 +23°C° 0 mm 1 mps 680 mmHg 30%
    07:00 +26°C° 0 mm 1 mps 681 mmHg 28%
    08:00 +28°C° 0 mm 2 mps 682 mmHg 27%
    09:00 +31°C° 0 mm 2 mps 683 mmHg 22%
    10:00 +34°C° 0 mm 3 mps 683 mmHg 18%
    11:00 +36°C° 0 mm 3 mps 683 mmHg 14%
    12:00 +37°C° 0 mm 4 mps 683 mmHg 14%
    13:00 +37°C° 0 mm 4 mps 682 mmHg 14%
    14:00 +37°C° 0 mm 5 mps 681 mmHg 14%
    15:00 +36°C° 0 mm 5 mps 681 mmHg 16%
    16:00 +35°C° 0 mm 5 mps 681 mmHg 19%
    17:00 +34°C° 0 mm 5 mps 680 mmHg 22%
    18:00 +32°C° 0 mm 5 mps 681 mmHg 31%
    19:00 +28°C° 0 mm 4 mps 681 mmHg 39%
    20:00 +26°C° 0 mm 4 mps 682 mmHg 48%
    21:00 +25°C° 0 mm 3 mps 682 mmHg 57%
    22:00 +24°C° 0 mm 3 mps 682 mmHg 65%
    23:00 +23°C° 0 mm 2 mps 683 mmHg 74%

    21 September, Friday

    Time Temperature Precipitation Wind Pressure Humidity
    00:00 +21°C° 0 mm 2 mps 682 mmHg 77%
    01:00 +21°C° 0 mm 2 mps 682 mmHg 79%
    02:00 +21°C° 0 mm 1 mps 682 mmHg 82%
    03:00 +21°C° 0 mm 1 mps 681 mmHg 83%
    04:00 +20°C° 0 mm 1 mps 681 mmHg 84%
    05:00 +20°C° 0 mm 1 mps 681 mmHg 84%
    06:00 +21°C° 0 mm 1 mps 682 mmHg 75%
    07:00 +23°C° 0 mm 2 mps 683 mmHg 66%
    08:00 +24°C° 0 mm 2 mps 684 mmHg 57%
    09:00 +27°C° 0 mm 2 mps 684 mmHg 46%
    10:00 +29°C° 0 mm 3 mps 684 mmHg 35%
    11:00 +33°C° 0 mm 3 mps 684 mmHg 24%
    12:00 +33°C° 0 mm 3 mps 683 mmHg 22%
    13:00 +34°C° 0 mm 4 mps 682 mmHg 20%
    14:00 +35°C° 0 mm 4 mps 682 mmHg 18%
    15:00 +34°C° 0 mm 4 mps 681 mmHg 20%
    16:00 +33°C° 0 mm 4 mps 681 mmHg 22%
    17:00 +32°C° 0 mm 4 mps 681 mmHg 24%
    18:00 +29°C° 0 mm 4 mps 681 mmHg 29%
    19:00 +27°C° 0 mm 3 mps 681 mmHg 35%
    20:00 +25°C° 0 mm 3 mps 682 mmHg 41%
    21:00 +24°C° 0 mm 2 mps 682 mmHg 48%
    22:00 +23°C° 0 mm 2 mps 682 mmHg 55%
    23:00 +21°C° 0 mm 2 mps 682 mmHg 63%

    22 September, Saturday

    Time Temperature Precipitation Wind Pressure Humidity
    00:00 +20°C° 0 mm 2 mps 681 mmHg 68%
    01:00 +20°C° 0 mm 1 mps 681 mmHg 73%
    02:00 +19°C° 0 mm 1 mps 680 mmHg 78%
    03:00 +19°C° 0 mm 1 mps 680 mmHg 80%
    04:00 +18°C° 0 mm 1 mps 680 mmHg 81%
    05:00 +18°C° 0 mm 1 mps 680 mmHg 82%
    06:00 +20°C° 0 mm 1 mps 681 mmHg 68%
    07:00 +23°C° 0 mm 1 mps 682 mmHg 54%
    08:00 +25°C° 0 mm 2 mps 683 mmHg 40%
    09:00 +27°C° 0 mm 2 mps 683 mmHg 31%
    10:00 +30°C° 0 mm 3 mps 683 mmHg 22%
    11:00 +33°C° 0 mm 3 mps 683 mmHg 12%
    12:00 +34°C° 0 mm 4 mps 682 mmHg 12%
    13:00 +34°C° 0 mm 4 mps 682 mmHg 11%
    14:00 +35°C° 0 mm 4 mps 681 mmHg 11%
    15:00 +34°C° 0 mm 4 mps 681 mmHg 13%
    16:00 +33°C° 0 mm 5 mps 680 mmHg 15%
    17:00 +32°C° 0 mm 5 mps 680 mmHg 17%
    18:00 +28°C° 0 mm 4 mps 680 mmHg 22%
    19:00 +26°C° 0 mm 3 mps 681 mmHg 27%
    20:00 +24°C° 0 mm 2 mps 681 mmHg 32%
    21:00 +23°C° 0 mm 2 mps 681 mmHg 38%
    22:00 +21°C° 0 mm 2 mps 681 mmHg 43%
    23:00 +21°C° 0 mm 1 mps 681 mmHg 48%

    23 September, Sunday

    Time Temperature Precipitation Wind Pressure Humidity
    00:00 +20°C° 0 mm 1 mps 680 mmHg 52%
    01:00 +19°C° 0 mm 1 mps 680 mmHg 57%
    02:00 +18°C° 0 mm 1 mps 680 mmHg 62%
    03:00 +18°C° 0 mm 1 mps 680 mmHg 64%
    04:00 +18°C° 0 mm 1 mps 680 mmHg 66%
    05:00 +16°C° 0 mm 1 mps 680 mmHg 69%
    06:00 +20°C° 0 mm 1 mps 681 mmHg 58%
    07:00 +23°C° 0 mm 1 mps 682 mmHg 48%
    08:00 +26°C° 0 mm 1 mps 683 mmHg 37%
    09:00 +28°C° 0 mm 2 mps 683 mmHg 31%
    10:00 +31°C° 0 mm 2 mps 683 mmHg 24%
    11:00 +34°C° 0 mm 2 mps 683 mmHg 17%
    12:00 +35°C° 0 mm 3 mps 682 mmHg 16%
    13:00 +36°C° 0 mm 3 mps 681 mmHg 15%
    14:00 +36°C° 0 mm 4 mps 681 mmHg 14%
    15:00 +35°C° 0 mm 4 mps 681 mmHg 16%
    16:00 +34°C° 0 mm 5 mps 680 mmHg 19%
    17:00 +33°C° 0 mm 5 mps 680 mmHg 21%
    18:00 +30°C° 0 mm 4 mps 681 mmHg 26%
    19:00 +28°C° 0 mm 4 mps 681 mmHg 31%
    20:00 +25°C° 0 mm 3 mps 681 mmHg 35%
    21:00 +24°C° 0 mm 3 mps 681 mmHg 42%
    22:00 +23°C° 0 mm 2 mps 681 mmHg 49%
    23:00 +21°C° 0 mm 2 mps 681 mmHg 57%
    Show more